[[{"header":{"parameterUnit":"m.s-1","parameterCategory":1,"la1":30.2991,"la2":30.254,"lo1":-89.0895,"lo2":-89.0444,"dy":0.0017,"dx":0.0017,"nx":28,"ny":28,"refTime":"2024-06-19T03:00:00:Z","depth":0,"parameterNumber":2,"parameterNumberName":"U-component_of_WINDS"},"data":[0,0,0,0,0,0,0,0,0,0,0,0,0,0,0,0,0,0,0,0,0,0,0,0,0,0,0,0,0,0,0,0,0,0,0,0,0,0,0,0,0,0,0,0,0,0,0,0,0,0,0,0,0,0,0,0,0,0,-8.3584,-8.3584,0,-8.357,-8.357,-8.357,-8.3369,-8.3364,-8.3359,-8.3354,-8.334,-8.3344,-8.3348,0,0,0,0,0,0,0,0,0,0,0,0,0,-8.3435,-8.3439,-8.3584,-8.3583,-8.3583,-8.357,-8.357,-8.357,-8.337,-8.3364,-8.3357,-8.3352,-8.3338,-8.3343,-8.3349,0,0,0,0,0,0,0,0,0,0,0,0,0,-8.3469,-8.344,-8.3584,-8.3482,-8.3473,-8.357,-8.357,-8.357,-8.3371,-8.3363,-8.3356,-8.3349,-8.3337,-8.3343,-8.3349,-8.3543,0,0,-8.3369,-8.3372,0,0,0,0,0,0,0,0,-8.3467,-8.3474,-8.3497,-8.3489,-8.3479,-8.3463,-8.3512,-8.3561,-8.3373,-8.341,-8.3354,-8.3345,-8.3387,-8.3389,-8.3403,-8.3542,-8.3542,-8.337,-8.3374,-8.3377,-8.3379,0,0,0,0,0,0,0,-8.3465,-8.3474,-8.3578,-8.3498,-8.3487,-8.3437,-8.3433,-8.3521,-8.3441,-8.3406,-8.3391,-8.3393,-8.3381,-8.3397,-8.3401,-8.3542,-8.337,-8.3376,-8.338,-8.3382,-8.3839,-8.3847,0,0,0,0,0,0,-8.3477,-8.3473,-8.3579,-8.3578,-8.3454,-8.3446,-8.3441,-8.3476,-8.344,-8.3427,-8.3399,-8.3383,-8.339,-8.3394,-8.34,-8.3624,-8.3377,-8.3383,-8.3387,-8.3831,-8.3841,-8.385,0,0,0,0,0,0,-8.3475,-8.3488,-8.3579,-8.3522,-8.3529,-8.3456,-8.3497,-8.348,-8.3496,-8.3435,-8.342,-8.3431,-8.3384,-8.3391,-8.3509,-8.3621,-8.3386,-8.3392,-8.3821,-8.3834,-8.3845,-8.4074,0,0,0,0,0,0,-8.3471,-8.3489,-8.3562,-8.3525,-8.3533,-8.3689,-8.3504,-8.3485,-8.3508,-8.3487,-8.346,-8.3449,-8.3379,-8.35,-8.3516,-8.3625,-8.3397,-8.3811,-8.3827,-8.3841,-8.4056,-8.4093,-8.4124,0,0,0,0,0,-8.3467,-8.3626,-8.3566,-8.358,-8.3623,-8.3696,-8.3701,-8.3617,-8.3518,-8.3591,-8.3551,-8.3449,-8.3607,-8.3514,-8.353,-8.3643,-8.3803,-8.3822,-8.384,-8.4041,-8.4086,-8.4123,0,0,0,0,0,0,-8.3678,-8.362,-8.3552,-8.3705,-8.3707,-8.3662,-8.3751,-8.3667,-8.3696,-8.3676,-8.357,-8.3566,-8.37,-8.3683,-8.3582,-8.3829,-8.3687,-8.371,-8.3835,-8.3876,-8.391,-8.391,-8.3402,0,0,0,0,0,-8.3742,-8.3807,-8.3752,-8.3892,-8.3897,-8.3825,-8.3853,-8.3789,-8.3786,-8.3786,-8.3754,-8.3756,-8.3805,-8.384,-8.3882,-8.4053,-8.4044,-8.4139,-8.4173,-8.4201,-8.4222,-8.4311,-8.4352,-8.391,-8.391,-8.391,0,0,-8.3876,-8.3852,-8.3899,-8.3934,-8.3928,-8.3997,-8.3826,-8.3906,-8.3956,-8.3797,-8.3907,-8.3885,-8.388,-8.4026,-8.4088,-8.4015,-8.4342,-8.4225,-8.4248,-8.4252,-8.4334,-8.4376,-8.4413,-8.3923,-8.392,-8.3918,0,0,-8.4154,-8.4143,-8.4258,-8.4256,-8.4249,-8.42,-8.4228,-8.4196,-8.4175,-8.4284,-8.4166,-8.4224,-8.4312,-8.4313,-8.4325,-8.4605,-8.4513,-8.4622,-8.4798,-8.4886,-8.4921,-8.4952,-8.5051,-8.5088,-8.4643,-8.4643,-8.4644,0,-8.432,-8.4419,-8.4328,-8.4416,-8.4435,-8.4295,-8.4411,-8.4413,-8.4421,-8.4437,-8.4356,-8.4463,-8.445,-8.4593,-8.4662,-8.4677,-8.4705,-8.4624,-8.4924,-8.4953,-8.498,-8.5074,-8.5111,-8.4656,-8.4655,-8.4654,-8.4652,0,-8.4624,-8.4695,-8.4789,-8.48,-8.483,-8.4931,-8.4855,-8.4896,-8.483,-8.479,-8.4902,-8.4882,-8.4917,-8.4947,-8.4882,-8.5082,-8.5037,-8.4942,-8.4797,-8.5037,-8.5123,-8.5158,-8.4675,-8.4671,-8.4667,-8.4663,0,0,-8.5033,-8.4993,-8.5029,-8.5033,-8.5016,-8.5068,-8.5164,-8.5199,-8.5236,-8.5247,-8.5324,-8.5402,-8.5314,-8.5328,-8.5263,-8.534,-8.5563,-8.5235,-8.5233,-8.5296,-8.5782,-8.5853,-8.5896,-8.5503,-8.5509,-8.5514,-8.5782,0,-8.53,-8.5461,-8.5382,-8.5553,-8.5617,-8.5486,-8.5569,-8.5568,-8.5534,-8.5583,-8.5544,-8.5601,-8.5481,-8.5488,-8.5559,-8.5521,-8.5659,-8.5501,-8.5573,-8.5577,-8.5577,-8.594,-8.6015,-8.6269,-8.5815,-8.582,-8.5825,0,-8.5633,-8.5659,-8.5836,-8.5807,-8.5831,-8.5907,-8.5933,-8.5982,-8.5978,-8.5947,-8.5965,-8.5881,-8.5973,-8.5832,-8.5956,-8.585,-8.5875,-8.5862,-8.5869,-8.5871,-8.5714,-8.5952,-8.6347,-8.6385,-8.5877,-8.5873,-8.5869,0,-8.5913,-8.5991,-8.6107,-8.6114,-8.6084,-8.6141,-8.6131,-8.6119,-8.6146,-8.6169,-8.6184,-8.6219,-8.6237,-8.6265,-8.6193,-8.6097,-8.6328,-8.618,-8.6305,-8.6307,-8.6358,-8.6355,-8.6762,-8.6377,-8.6377,-8.6376,-8.6375,0,-8.6219,-8.6332,-8.6232,-8.6303,-8.6426,-8.6335,-8.6459,-8.6435,-8.6426,-8.649,-8.638,-8.6443,-8.6345,-8.6398,-8.6343,-8.6454,-8.6464,-8.6441,-8.6425,-8.645,-8.6453,-8.6464,-8.6444,-8.6386,-8.6384,-8.6382,-8.638,0,-8.6551,-8.6488,-8.6606,-8.6568,-8.6562,-8.6654,-8.6621,-8.6686,-8.6644,-8.6727,-8.6741,-8.6676,-8.6733,-8.6665,-8.6716,-8.6679,-8.683,-8.6788,-8.6832,-8.6819,-8.6947,-8.6936,-8.7374,-8.7426,-8.701,-8.7014,-8.7017,0,-8.675,-8.6834,-8.6806,-8.6841,-8.6838,-8.6896,-8.6922,-8.6836,-8.6868,-8.6871,-8.6936,-8.6983,-8.7016,-8.7113,-8.7071,-8.7109,-8.7067,-8.7218,-8.7071,-8.7095,-8.7068,-8.7063,-8.7071,-8.7247,-8.7252,-8.7256,-8.7259,0,-8.7109,-8.7074,-8.7116,-8.7149,-8.7184,-8.7205,-8.7218,-8.7254,-8.7164,-8.7206,-8.7263,-8.7289,-8.7341,-8.739,-8.7417,-8.7406,-8.7319,-8.7306,-8.7337,-8.7363,-8.7384,-8.7373,-8.6912,-8.7296,-8.7292,-8.729,-8.7288,-8.7286,-8.7378,-8.7447,-8.7438,-8.749,-8.7491,-8.7506,-8.7564,-8.7531,-8.7577,-8.7612,-8.7559,-8.7631,-8.7625,-8.7652,-8.7652,-8.7707,-8.7641,-8.7686,-8.7697,-8.7709,-8.7728,-8.7377,-8.7711,-8.771,-8.7709,-8.7708,-8.7707,0,-8.773,-8.7719,-8.7767,-8.7789,-8.783,-8.7745,-8.7755,-8.7795,-8.7859,-8.7861,-8.7897,-8.7963,-8.801,-8.7972,-8.8011,-8.8062,-8.8023,-8.8075,-8.8069,-8.8068,-8.7784,-8.7754,-8.8106,-8.8106,-8.8106,-8.8106,-8.8105,-8.8105,-8.7918,-8.803,-8.7994,-8.8106,-8.8092,-8.8162,-8.8175,-8.8188,-8.819,-8.8268,-8.8307,-8.8282,-8.8268,-8.8306,-8.8345,-8.8333,-8.8352,-8.8418,-8.8392,-8.8127,-8.8088,-8.8051,-8.8021,-8.8424,-8.8424,-8.867,-8.8673,-8.8674]},{"header":{"parameterUnit":"m.s-1","parameterCategory":1,"la1":30.2991,"la2":30.254,"lo1":-89.0895,"lo2":-89.0444,"dy":0.0017,"dx":0.0017,"nx":28,"ny":28,"refTime":"2024-06-19T03:00:00:Z","depth":0,"parameterNumber":3,"parameterNumberName":"V-component_of_WINDS"},"data":[0,0,0,0,0,0,0,0,0,0,0,0,0,0,0,0,0,0,0,0,0,0,0,0,0,0,0,0,0,0,0,0,0,0,0,0,0,0,0,0,0,0,0,0,0,0,0,0,0,0,0,0,0,0,0,0,0,0,-0.5153,-0.5152,0,-0.5067,-0.5066,-0.5065,-0.5028,-0.5028,-0.5029,-0.5029,-0.4941,-0.4939,-0.4936,0,0,0,0,0,0,0,0,0,0,0,0,0,-0.5286,-0.5284,-0.5153,-0.5152,-0.5151,-0.5067,-0.5066,-0.5065,-0.5028,-0.5028,-0.5029,-0.5029,-0.4942,-0.4939,-0.4936,0,0,0,0,0,0,0,0,0,0,0,0,0,-0.5217,-0.5283,-0.5154,-0.5123,-0.5119,-0.5067,-0.5066,-0.5064,-0.5028,-0.5029,-0.5029,-0.5029,-0.4943,-0.4939,-0.4936,-0.4908,0,0,-0.4924,-0.4923,0,0,0,0,0,0,0,0,-0.5221,-0.5212,-0.5129,-0.5125,-0.5121,-0.5059,-0.508,-0.5012,-0.5028,-0.5063,-0.5029,-0.5029,-0.498,-0.4973,-0.4957,-0.4904,-0.49,-0.4924,-0.4922,-0.492,-0.4919,0,0,0,0,0,0,0,-0.5226,-0.5216,-0.5119,-0.5127,-0.5123,-0.5113,-0.5104,-0.5067,-0.5021,-0.506,-0.5057,-0.5047,-0.4978,-0.496,-0.4954,-0.4899,-0.4924,-0.4921,-0.4919,-0.4917,-0.4816,-0.4816,0,0,0,0,0,0,-0.5236,-0.522,-0.5122,-0.5117,-0.5172,-0.5111,-0.51,-0.5078,-0.5022,-0.5013,-0.5047,-0.5046,-0.4967,-0.4959,-0.4951,-0.4913,-0.492,-0.4917,-0.4915,-0.4817,-0.4816,-0.4816,0,0,0,0,0,0,-0.5239,-0.5227,-0.5125,-0.5167,-0.5154,-0.5108,-0.5084,-0.5077,-0.5059,-0.5012,-0.5004,-0.5037,-0.4966,-0.4956,-0.4918,-0.491,-0.4915,-0.4912,-0.4817,-0.4816,-0.4816,-0.4838,0,0,0,0,0,0,-0.5243,-0.5229,-0.5218,-0.5167,-0.5152,-0.5094,-0.5084,-0.5075,-0.5052,-0.505,-0.5001,-0.4993,-0.4966,-0.4924,-0.4915,-0.4905,-0.4909,-0.4818,-0.4817,-0.4816,-0.4838,-0.4838,-0.4839,0,0,0,0,0,-0.5247,-0.5229,-0.5218,-0.5206,-0.5137,-0.5094,-0.5085,-0.5054,-0.5052,-0.504,-0.501,-0.4994,-0.4912,-0.492,-0.491,-0.4898,-0.4818,-0.4817,-0.4816,-0.4838,-0.4838,-0.4839,0,0,0,0,0,0,-0.528,-0.5221,-0.5209,-0.5173,-0.5139,-0.5088,-0.5073,-0.5056,-0.5022,-0.5021,-0.4985,-0.4974,-0.4938,-0.4915,-0.4925,-0.4867,-0.4864,-0.4861,-0.4884,-0.4884,-0.4884,-0.4891,-0.4906,0,0,0,0,0,-0.5283,-0.5253,-0.5203,-0.5176,-0.516,-0.5119,-0.5099,-0.5078,-0.5041,-0.5027,-0.4994,-0.4959,-0.4924,-0.4903,-0.4869,-0.4834,-0.4822,-0.4821,-0.4821,-0.4822,-0.4819,-0.4797,-0.4795,-0.4812,-0.4812,-0.4812,0,0,-0.5289,-0.5253,-0.5237,-0.5182,-0.5153,-0.5122,-0.5107,-0.5076,-0.5052,-0.5022,-0.4983,-0.4958,-0.4916,-0.4879,-0.4861,-0.4858,-0.4812,-0.482,-0.4821,-0.4818,-0.4796,-0.4794,-0.4793,-0.4812,-0.4812,-0.4812,0,0,-0.5284,-0.5254,-0.5228,-0.5198,-0.5154,-0.5127,-0.512,-0.5071,-0.5053,-0.5013,-0.499,-0.4961,-0.4904,-0.4874,-0.4852,-0.4832,-0.4816,-0.4823,-0.4824,-0.4803,-0.4801,-0.48,-0.4792,-0.4789,-0.482,-0.482,-0.482,0,-0.5297,-0.5249,-0.5216,-0.5185,-0.5161,-0.5131,-0.5103,-0.5076,-0.5024,-0.5007,-0.5005,-0.493,-0.49,-0.4855,-0.485,-0.4833,-0.4824,-0.4828,-0.4804,-0.4803,-0.4801,-0.4792,-0.479,-0.4821,-0.4821,-0.4821,-0.4821,0,-0.5267,-0.5234,-0.5218,-0.5166,-0.514,-0.5111,-0.5072,-0.505,-0.5031,-0.5003,-0.4962,-0.4925,-0.4882,-0.487,-0.4851,-0.4821,-0.482,-0.4811,-0.4807,-0.4801,-0.4792,-0.4789,-0.4823,-0.4822,-0.4822,-0.4822,0,0,-0.5281,-0.521,-0.5205,-0.518,-0.5128,-0.5101,-0.507,-0.5027,-0.5008,-0.4972,-0.4944,-0.4895,-0.4885,-0.486,-0.4837,-0.4819,-0.4803,-0.4812,-0.481,-0.481,-0.4766,-0.4772,-0.4769,-0.4792,-0.4792,-0.4791,-0.4769,0,-0.5268,-0.5211,-0.5178,-0.5134,-0.5102,-0.5072,-0.5044,-0.5009,-0.4982,-0.4951,-0.4921,-0.4886,-0.4877,-0.4861,-0.4842,-0.481,-0.4794,-0.4811,-0.4765,-0.4764,-0.4776,-0.4765,-0.4772,-0.4752,-0.4765,-0.4765,-0.4764,0,-0.5246,-0.5209,-0.5161,-0.511,-0.5095,-0.5071,-0.5028,-0.4999,-0.4957,-0.4939,-0.4909,-0.4886,-0.4851,-0.4849,-0.4799,-0.4811,-0.479,-0.4772,-0.477,-0.4764,-0.4764,-0.4758,-0.4746,-0.4743,-0.4759,-0.4759,-0.476,0,-0.526,-0.5198,-0.5161,-0.5141,-0.5081,-0.5064,-0.5038,-0.4997,-0.4972,-0.4934,-0.4918,-0.4877,-0.4854,-0.4823,-0.4789,-0.4791,-0.4742,-0.4738,-0.4725,-0.4726,-0.4716,-0.4717,-0.47,-0.4704,-0.4704,-0.4704,-0.4704,0,-0.5248,-0.522,-0.5166,-0.5143,-0.5109,-0.5072,-0.5039,-0.5011,-0.4974,-0.4945,-0.4917,-0.4889,-0.4847,-0.4814,-0.4787,-0.4749,-0.4739,-0.4723,-0.4716,-0.4725,-0.4727,-0.471,-0.4711,-0.4703,-0.4703,-0.4703,-0.4704,0,-0.5258,-0.5221,-0.5178,-0.5124,-0.511,-0.5087,-0.5041,-0.5016,-0.4987,-0.495,-0.4939,-0.4893,-0.4853,-0.4816,-0.4763,-0.4745,-0.4705,-0.4697,-0.4719,-0.4715,-0.4704,-0.4705,-0.4675,-0.4668,-0.4678,-0.4678,-0.4678,0,-0.5253,-0.523,-0.5173,-0.5151,-0.5125,-0.509,-0.5064,-0.5026,-0.5,-0.495,-0.4931,-0.4889,-0.4852,-0.4789,-0.4751,-0.4709,-0.47,-0.4692,-0.4693,-0.4702,-0.4698,-0.4699,-0.4696,-0.4692,-0.4692,-0.4692,-0.4692,0,-0.5248,-0.523,-0.5194,-0.515,-0.512,-0.5084,-0.5048,-0.5031,-0.4986,-0.4958,-0.4916,-0.4887,-0.4832,-0.4789,-0.4743,-0.4716,-0.4696,-0.4692,-0.4687,-0.4695,-0.4708,-0.47,-0.4719,-0.4693,-0.4693,-0.4693,-0.4693,-0.4693,-0.5249,-0.5227,-0.5182,-0.5142,-0.511,-0.5076,-0.505,-0.5016,-0.498,-0.4931,-0.4911,-0.4868,-0.4824,-0.476,-0.4733,-0.4698,-0.4694,-0.4687,-0.4684,-0.4683,-0.4684,-0.4714,-0.4689,-0.4689,-0.4689,-0.4689,-0.4689,0,-0.5241,-0.5211,-0.5174,-0.5123,-0.5091,-0.5074,-0.5032,-0.5006,-0.4968,-0.4929,-0.4893,-0.4844,-0.4801,-0.4759,-0.4715,-0.4695,-0.4684,-0.4684,-0.4685,-0.4679,-0.4691,-0.4699,-0.4693,-0.4693,-0.4693,-0.4693,-0.4693,-0.4693,-0.5233,-0.5193,-0.517,-0.5113,-0.5082,-0.5039,-0.5016,-0.4983,-0.4952,-0.4897,-0.4862,-0.4834,-0.4793,-0.4745,-0.4705,-0.4693,-0.4678,-0.468,-0.4666,-0.4678,-0.4678,-0.4678,-0.4686,-0.4677,-0.4677,-0.4657,-0.4656,-0.4656]}]]